Weather in Edinets

Moldova     48°10′16″N   27°18′12″E
temp.,
°C
wind,
m/s
gust,
m/s
humid.,
%
clouds,
%
prec.,
mm/h
press.,
hPa
HPBL,
m
24 september, fri
fri2400:00+9sw4874100 0.0 1015209
03:00+9ssw41072100 0.0 1012276
06:00+9ssw51173100 0.1 1009286
09:00+10ssw61375100 0.6 1007446
12:00+13w51268100 0.8 10071082
15:00+17wnw101552100 0.9 10071995
18:00+15wnw81458100 0.1 10081486
21:00+12wnw8156683 0.1 1011877
25 september, sat
sat2500:00+11wnw7147093 0.0 1012833
03:00+10wnw7157325 0.0 1013680
06:00+9wnw6157552 0.0 1014577
09:00+11wnw61365100 0.0 1016692
12:00+14wnw61162100 0.0 1018778
15:00+17wnw6105823 0.0 10171249
18:00+18wnw6105863 0.0 1018758
21:00+16w31165100 0.0 1019355
26 september, sun
sun2600:00+16w3764100 0.0 1019177
03:00+16w3963100 0.0 1020235
06:00+15w31062100 0.0 1020327
09:00+16wnw496182 0.0 1021418
12:00+20nw585730 0.0 10211249
15:00+21nw6852100 0.0 10201665
18:00+20nnw475425 0.0 1020416
21:00+14nne496751 0.0 1021180
27 september, mon
mon2700:00+12ne35675 0.0 102298
03:00+11ne347617 0.0 102375
06:00+9ene367632 0.0 1023137
09:00+11e466729 0.0 1023286
12:00+16e445072 0.0 1023879
15:00+18e333978 0.0 10221134
18:00+16ene344198 0.0 1022156
21:00+12ene464881 0.0 1023107
28 september, tue
tue2800:00+10ene485969 0.0 1024150
03:00+9e47685 0.0 1024130
06:00+8ene47755 0.0 1024135
09:00+11e58654 0.0 1025304
12:00+15ese55471 0.0 10261354
15:00+17e443814 0.0 10251866
18:00+15ene67444 0.0 1025674
21:00+11e48570 0.0 1027161